,,,PA_Meas_PMT16A,,PR_Meas_QMR101_102,,RH_Meas_QMH101,,SR_Meas_QMS101,,TA_Meas_QMH101,,GenWind,,GenWind,
date,time,status,PA,status,PR,status,RH,status,SR,status,TA,status,DirAvg,status,SpdAvg,
2011-04-05, 00:00:05,VALID,1005.72,VALID,1.5,INVALID,163.746,VALID,0,VALID,23.8593,VALID,257,VALID,2.3875,
2011-04-05, 00:01:05,VALID,1005.89,VALID,1.5,INVALID,163.723,VALID,0,VALID,23.8769,VALID,213,VALID,2.26328,
2011-04-05, 00:02:05,VALID,1006,VALID,1.5,INVALID,163.731,VALID,0,VALID,23.8203,VALID,224,VALID,2.22266,
2011-04-05, 00:03:05,VALID,1005.88,VALID,2,INVALID,163.723,VALID,0,VALID,23.7814,VALID,310,VALID,2.98008,
2011-04-05, 00:04:05,VALID,1006.13,VALID,1.5,INVALID,163.731,VALID,0,VALID,23.7212,VALID,264,VALID,3.05664,
2011-04-05, 00:05:05,VALID,1006.12,VALID,2.5,INVALID,163.769,VALID,0,VALID,23.4894,VALID,286,VALID,3.86055,
2011-04-05, 00:06:05,VALID,1006.41,VALID,1.5,INVALID,163.8,VALID,0,VALID,23.1763,VALID,201,VALID,2.82383,
2011-04-05, 00:07:05,VALID,1006.2,VALID,2,INVALID,163.754,VALID,0,VALID,22.9039,VALID,250,VALID,4.78477,
2011-04-05, 00:08:05,VALID,1005.88,VALID,1,INVALID,163.8,VALID,0,VALID,22.7076,VALID,250,VALID,5.56992,
2011-04-05, 00:09:05,VALID,1005.88,VALID,1.5,INVALID,163.83,VALID,0,VALID,22.5536,VALID,265,VALID,3.06641,
2011-04-05, 00:10:05,VALID,1005.67,VALID,1,INVALID,163.823,VALID,0,VALID,22.4758,VALID,310,VALID,3.56797,
2011-04-05, 00:11:05,VALID,1005.86,VALID,1,INVALID,163.823,VALID,0,VALID,22.4369,VALID,265,VALID,3.69688,
2011-04-05, 00:12:05,VALID,1005.82,VALID,1,INVALID,163.807,VALID,0,VALID,22.398,VALID,252,VALID,3.27187,
2011-04-05, 00:13:05,VALID,1005.84,VALID,0.5,INVALID,163.838,VALID,0,VALID,22.3396,VALID,266,VALID,2.26172,
2011-04-05, 00:14:05,VALID,1005.86,VALID,1,INVALID,163.83,VALID,0,VALID,22.2812,VALID,247,VALID,2.22266,
2011-04-05, 00:15:05,VALID,1005.43,VALID,0.5,INVALID,163.845,VALID,0,VALID,22.2812,VALID,255,VALID,2.8125,
2011-04-05, 00:16:05,VALID,1005.82,VALID,0.5,INVALID,163.853,VALID,0,VALID,22.2812,VALID,259,VALID,4.22422,
2011-04-05, 00:17:05,VALID,1005.72,VALID,1,INVALID,163.838,VALID,0,VALID,22.3202,VALID,303,VALID,1.44258,
2011-04-05, 00:18:05,VALID,1005.73,VALID,1,INVALID,163.868,VALID,0,VALID,22.3591,VALID,279,VALID,2.62695,
2011-04-05, 00:19:05,VALID,1005.82,VALID,1,INVALID,163.853,VALID,0,VALID,22.4369,VALID,222,VALID,2.04766,
2011-04-05, 00:20:05,VALID,1005.79,VALID,1,INVALID,163.868,VALID,0,VALID,22.5342,VALID,229,VALID,3.07148,
2011-04-05, 00:21:05,VALID,1005.92,VALID,1.5,INVALID,163.845,VALID,0,VALID,22.5942,VALID,259,VALID,3.81094,
2011-04-05, 00:22:05,VALID,1005.94,VALID,0.5,INVALID,163.853,VALID,0,VALID,22.612,VALID,213,VALID,3.04453,
2011-04-05, 00:23:05,VALID,1005.96,VALID,1,INVALID,163.845,VALID,0,VALID,22.612,VALID,262,VALID,2.35664,
2011-04-05, 00:24:05,VALID,1006.02,VALID,1,INVALID,163.815,VALID,0,VALID,22.5714,VALID,271,VALID,2.96797,
2011-04-05, 00:25:05,VALID,1005.84,VALID,0.5,INVALID,163.83,VALID,0,VALID,22.5147,VALID,263,VALID,4.83867,
2011-04-05, 00:26:05,VALID,1005.99,VALID,0.5,INVALID,163.838,VALID,0,VALID,22.4758,VALID,257,VALID,2.65078,
2011-04-05, 00:27:05,VALID,1006.07,VALID,0.5,INVALID,163.823,VALID,0,VALID,22.4546,VALID,243,VALID,2.31875,
2011-04-05, 00:28:05,VALID,1006,VALID,0,INVALID,163.845,VALID,0,VALID,22.3963,VALID,309,VALID,3.74609,
2011-04-05, 00:29:05,VALID,1006.14,VALID,0.5,INVALID,163.853,VALID,0,VALID,22.3396,VALID,235,VALID,3.40547,
2011-04-05, 00:30:05,VALID,1006.11,VALID,0.5,INVALID,163.838,VALID,0,VALID,22.3007,VALID,265,VALID,3.05938,
2011-04-05, 00:31:05,VALID,1006.09,VALID,0,INVALID,163.876,VALID,0,VALID,22.2407,VALID,270,VALID,2.59766,
2011-04-05, 00:32:05,VALID,1005.98,VALID,0.5,INVALID,163.876,VALID,0.100563,VALID,22.2195,VALID,244,VALID,4.24961,
2011-04-05, 00:33:05,VALID,1006.08,VALID,0,INVALID,163.876,VALID,0,VALID,22.2618,VALID,245,VALID,2.39648,
2011-04-05, 00:34:05,VALID,1006.02,VALID,0,INVALID,163.845,VALID,0.100563,VALID,22.2407,VALID,271,VALID,2.45664,
2011-04-05, 00:35:05,VALID,1005.91,VALID,0.5,INVALID,163.868,VALID,0,VALID,22.1434,VALID,264,VALID,5.59727,
2011-04-05, 00:36:05,VALID,1006.02,VALID,0,INVALID,163.884,VALID,0,VALID,22.1256,VALID,263,VALID,2.80547,
2011-04-05, 00:37:05,VALID,1005.99,VALID,0.5,INVALID,163.868,VALID,0,VALID,22.1256,VALID,266,VALID,4.40938,
2011-04-05, 00:38:05,VALID,1005.85,VALID,0,INVALID,163.876,VALID,0,VALID,22.1451,VALID,276,VALID,2.81602,
2011-04-05, 00:39:05,VALID,1005.9,VALID,0,INVALID,163.845,VALID,0,VALID,22.1645,VALID,284,VALID,4.6125,
2011-04-05, 00:40:05,VALID,1005.78,VALID,0.5,INVALID,163.876,VALID,0,VALID,22.2229,VALID,298,VALID,2.75312,
2011-04-05, 00:41:05,VALID,1005.95,VALID,0,INVALID,163.868,VALID,0,VALID,22.2034,VALID,248,VALID,2.03516,
2011-04-05, 00:42:05,VALID,1006.01,VALID,0,INVALID,163.868,VALID,0,VALID,22.1434,VALID,265,VALID,3.33984,
2011-04-05, 00:43:05,VALID,1005.96,VALID,0.5,INVALID,163.845,VALID,0,VALID,22.1239,VALID,282,VALID,2.96406,
2011-04-05, 00:44:04,VALID,1006.05,VALID,0,INVALID,163.868,VALID,0.100563,VALID,22.1045,VALID,253,VALID,1.91445,
2011-04-05, 00:45:04,VALID,1005.97,VALID,0,INVALID,163.861,VALID,0,VALID,22.0867,VALID,269,VALID,2.77266,
2011-04-05, 00:46:04,VALID,1006,VALID,0,INVALID,163.884,VALID,0.100563,VALID,22.0267,VALID,278,VALID,3.14141,
2011-04-05, 00:47:04,VALID,1005.93,VALID,0.5,INVALID,163.845,VALID,0.100563,VALID,22.0478,VALID,274,VALID,3.04492,
2011-04-05, 00:48:04,VALID,1005.99,VALID,0,INVALID,163.853,VALID,0.100563,VALID,22.0461,VALID,257,VALID,2.04102,
2011-04-05, 00:49:04,VALID,1005.93,VALID,0,INVALID,163.876,VALID,0.100563,VALID,22.0461,VALID,279,VALID,2.23867,
2011-04-05, 00:50:04,VALID,1005.93,VALID,0.5,INVALID,163.861,VALID,0.100563,VALID,22.0656,VALID,245,VALID,1.8457,
2011-04-05, 00:51:04,VALID,1005.91,VALID,0,INVALID,163.884,VALID,0,VALID,22.0867,VALID,216,VALID,1.22539,
2011-04-05, 00:52:04,VALID,1005.92,VALID,0,INVALID,163.861,VALID,0.100563,VALID,22.1239,VALID,256,VALID,0.972266,
2011-04-05, 00:53:04,VALID,1005.88,VALID,0,INVALID,163.868,VALID,0.100563,VALID,22.1823,VALID,285,VALID,2.54492,
2011-04-05, 00:54:04,VALID,1005.97,VALID,0,INVALID,163.899,VALID,0.100563,VALID,22.2212,VALID,245,VALID,1.65039,
2011-04-05, 00:55:04,VALID,1006.02,VALID,0,INVALID,163.853,VALID,0.100563,VALID,22.3202,VALID,207,VALID,0.95,
2011-04-05, 00:56:04,VALID,1005.96,VALID,0,INVALID,163.853,VALID,0.100563,VALID,22.3963,VALID,239,VALID,1.43242,
2011-04-05, 00:57:04,VALID,1005.9,VALID,0,INVALID,163.861,VALID,0,VALID,22.4546,VALID,229,VALID,2.68203,
2011-04-05, 00:58:04,VALID,1006.03,VALID,0,INVALID,163.823,VALID,0.100563,VALID,22.5519,VALID,299,VALID,1.67539,
2011-04-05, 00:59:04,VALID,1006.02,VALID,0,INVALID,163.823,VALID,0,VALID,22.5942,VALID,258,VALID,1.62109,
2011-04-05, 01:00:04,VALID,1006.01,VALID,0,INVALID,163.83,VALID,0,VALID,22.6704,VALID,263,VALID,1.35547,
2011-04-05, 01:01:04,VALID,1006.02,VALID,0,INVALID,163.823,VALID,0,VALID,22.7093,VALID,291,VALID,2.26641,
2011-04-05, 01:02:04,VALID,1006.06,VALID,0,INVALID,163.845,VALID,0,VALID,22.6881,VALID,279,VALID,1.97031,
2011-04-05, 01:03:04,VALID,1006.01,VALID,0,INVALID,163.83,VALID,0,VALID,22.711,VALID,304,VALID,2.50078,
2011-04-05, 01:04:04,VALID,1006.11,VALID,0.5,INVALID,163.823,VALID,0,VALID,22.6704,VALID,249,VALID,0.789844,
2011-04-05, 01:05:04,VALID,1006.04,VALID,0,INVALID,163.815,VALID,0,VALID,22.6898,VALID,297,VALID,0.932813,
2011-04-05, 01:06:04,VALID,1006.03,VALID,0,INVALID,163.838,VALID,0,VALID,22.6721,VALID,173,VALID,0.59375,
2011-04-05, 01:07:04,VALID,1005.99,VALID,0,INVALID,163.807,VALID,0,VALID,22.6297,VALID,317,VALID,1.95703,
2011-04-05, 01:08:04,VALID,1005.95,VALID,0.5,INVALID,163.815,VALID,0,VALID,22.6721,VALID,293,VALID,0.991016,
2011-04-05, 01:09:04,VALID,1006,VALID,0,INVALID,163.838,VALID,0,VALID,22.6509,VALID,288,VALID,2.29219,
2011-04-05, 01:10:04,VALID,1006.01,VALID,0,INVALID,163.838,VALID,0,VALID,22.6315,VALID,297,VALID,1.10039,
2011-04-05, 01:11:04,VALID,1006.03,VALID,0,INVALID,163.838,VALID,0,VALID,22.6509,VALID,288,VALID,1.07031,
2011-04-05, 01:12:04,VALID,1005.99,VALID,0,INVALID,163.823,VALID,0,VALID,22.612,VALID,320,VALID,0.790625,
2011-04-05, 01:13:04,VALID,1005.98,VALID,0,INVALID,163.83,VALID,0,VALID,22.6509,VALID,287,VALID,1.06758,
2011-04-05, 01:14:04,VALID,1005.97,VALID,0,INVALID,163.815,VALID,0,VALID,22.6898,VALID,302,VALID,1.56406,
2011-04-05, 01:15:04,VALID,1005.95,VALID,0,INVALID,163.83,VALID,0,VALID,22.7287,VALID,290,VALID,1.42383,
2011-04-05, 01:16:04,VALID,1005.93,VALID,0.5,INVALID,163.815,VALID,0,VALID,22.7677,VALID,296,VALID,1.14883,
2011-04-05, 01:17:04,VALID,1005.92,VALID,0,INVALID,163.815,VALID,0,VALID,22.7659,VALID,293,VALID,1.33633,
2011-04-05, 01:18:04,VALID,1005.83,VALID,0,INVALID,163.807,VALID,0,VALID,22.8472,VALID,272,VALID,1.43203,
2011-04-05, 01:19:04,VALID,1005.79,VALID,0,INVALID,163.792,VALID,0,VALID,22.8844,VALID,238,VALID,1.84492,
2011-04-05, 01:20:04,VALID,1005.79,VALID,0,INVALID,163.83,VALID,0,VALID,22.9233,VALID,288,VALID,1.89297,
2011-04-05, 01:21:04,VALID,1005.78,VALID,0,INVALID,163.861,VALID,0,VALID,22.9233,VALID,238,VALID,0.978906,
2011-04-05, 01:22:04,VALID,1005.7,VALID,0.5,INVALID,163.815,VALID,0,VALID,22.964,VALID,256,VALID,1.69766,
2011-04-05, 01:23:04,VALID,1005.72,VALID,0,INVALID,163.792,VALID,0,VALID,22.9817,VALID,231,VALID,0.769922,
2011-04-05, 01:24:04,VALID,1005.66,VALID,0,INVALID,163.807,VALID,0,VALID,23.0012,VALID,282,VALID,1.18789,
2011-04-05, 01:25:04,VALID,1005.62,VALID,0,INVALID,163.784,VALID,0,VALID,23.0206,VALID,263,VALID,1.24766,
2011-04-05, 01:26:04,VALID,1005.55,VALID,0,INVALID,163.792,VALID,0,VALID,23.0224,VALID,280,VALID,1.28984,
2011-04-05, 01:27:04,VALID,1005.57,VALID,0,INVALID,163.8,VALID,0,VALID,23.0206,VALID,274,VALID,0.763672,
2011-04-05, 01:28:04,VALID,1005.52,VALID,0.5,INVALID,163.784,VALID,0,VALID,23.0401,VALID,245,VALID,2.33633,
2011-04-05, 01:29:04,VALID,1005.51,VALID,0,INVALID,163.807,VALID,0,VALID,23.079,VALID,254,VALID,0.916406,
2011-04-05, 01:30:04,VALID,1005.5,VALID,0,INVALID,163.8,VALID,0,VALID,23.079,VALID,253,VALID,1.51172,
2011-04-05, 01:31:04,VALID,1005.5,VALID,0,INVALID,163.8,VALID,0,VALID,23.079,VALID,180,VALID,0.888672,
2011-04-05, 01:32:04,VALID,1005.5,VALID,0,INVALID,163.777,VALID,0,VALID,23.079,VALID,272,VALID,1.29609,
2011-04-05, 01:33:04,VALID,1005.51,VALID,0,INVALID,163.784,VALID,0,VALID,23.1002,VALID,251,VALID,0.890234,
2011-04-05, 01:34:04,VALID,1005.49,VALID,0.5,INVALID,163.777,VALID,0,VALID,23.0383,VALID,255,VALID,0.764844,
2011-04-05, 01:35:04,VALID,1005.55,VALID,0,INVALID,163.769,VALID,0,VALID,23.079,VALID,276,VALID,1.07813,
2011-04-05, 01:36:04,VALID,1005.56,VALID,0,INVALID,163.784,VALID,0,VALID,23.0984,VALID,270,VALID,1.59258,
2011-04-05, 01:37:04,VALID,1005.62,VALID,0,INVALID,163.769,VALID,0,VALID,23.1002,VALID,299,VALID,1.26836,
2011-04-05, 01:38:04,VALID,1005.64,VALID,0,INVALID,163.823,VALID,0,VALID,23.1197,VALID,257,VALID,0.520703,
2011-04-05, 01:39:04,VALID,1005.65,VALID,0,INVALID,163.792,VALID,0,VALID,23.0984,VALID,233,VALID,1.3793,
2011-04-05, 01:40:04,VALID,1005.66,VALID,0.5,INVALID,163.807,VALID,0,VALID,23.0984,VALID,285,VALID,1.8375,
2011-04-05, 01:41:04,VALID,1005.68,VALID,0,INVALID,163.8,VALID,0,VALID,23.1374,VALID,289,VALID,1.44844,
2011-04-05, 01:42:04,VALID,1005.72,VALID,0,INVALID,163.784,VALID,0,VALID,23.1374,VALID,253,VALID,1.59297,
2011-04-05, 01:43:04,VALID,1005.71,VALID,0,INVALID,163.784,VALID,0,VALID,23.1179,VALID,258,VALID,1.16523,
2011-04-05, 01:44:04,VALID,1005.69,VALID,0,INVALID,163.777,VALID,0,VALID,23.1179,VALID,251,VALID,0.835156,
2011-04-05, 01:45:04,VALID,1005.68,VALID,0,INVALID,163.792,VALID,0,VALID,23.0984,VALID,279,VALID,1.99258,
2011-04-05, 01:46:04,VALID,1005.66,VALID,0.5,INVALID,163.8,VALID,0,VALID,23.1002,VALID,236,VALID,0.952734,
2011-04-05, 01:47:04,VALID,1005.66,VALID,0,INVALID,163.8,VALID,0,VALID,23.1002,VALID,247,VALID,1.44141,
2011-04-05, 01:48:04,VALID,1005.63,VALID,0,INVALID,163.807,VALID,0,VALID,23.1002,VALID,278,VALID,2.37617,
2011-04-05, 01:49:04,VALID,1005.6,VALID,0,INVALID,163.784,VALID,0,VALID,23.1002,VALID,276,VALID,1.2543,
2011-04-05, 01:50:04,VALID,1005.57,VALID,0,INVALID,163.777,VALID,0,VALID,23.0807,VALID,277,VALID,1.2043,
2011-04-05, 01:51:04,VALID,1005.53,VALID,0,INVALID,163.777,VALID,0,VALID,23.0383,VALID,291,VALID,2.1668,
2011-04-05, 01:52:04,VALID,1005.51,VALID,0,INVALID,163.8,VALID,0,VALID,23.0807,VALID,302,VALID,3.34922,
2011-04-05, 01:53:04,VALID,1005.51,VALID,0,INVALID,163.8,VALID,0,VALID,23.1002,VALID,276,VALID,2.01406,
2011-04-05, 01:54:04,VALID,1005.5,VALID,0.5,INVALID,163.792,VALID,0,VALID,23.1197,VALID,287,VALID,1.84805,
2011-04-05, 01:55:04,VALID,1005.51,VALID,0,INVALID,163.784,VALID,0,VALID,23.1179,VALID,283,VALID,2.0207,
2011-04-05, 01:56:04,VALID,1005.51,VALID,0,INVALID,163.754,VALID,0,VALID,23.1374,VALID,275,VALID,1.94687,
2011-04-05, 01:57:04,VALID,1005.48,VALID,0,INVALID,163.769,VALID,0,VALID,23.1568,VALID,260,VALID,1.47461,
2011-04-05, 01:58:04,VALID,1005.41,VALID,0,INVALID,163.777,VALID,0,VALID,23.178,VALID,292,VALID,3.80625,
2011-04-05, 01:59:04,VALID,1005.46,VALID,0,INVALID,163.784,VALID,0,VALID,23.1568,VALID,271,VALID,1.60664,
2011-04-05, 02:00:04,VALID,1005.47,VALID,0.5,INVALID,163.8,VALID,0,VALID,23.1568,VALID,234,VALID,0.783594,
2011-04-05, 02:01:04,VALID,1005.45,VALID,0,INVALID,163.769,VALID,0,VALID,23.178,VALID,279,VALID,2.42461,
2011-04-05, 02:02:04,VALID,1005.43,VALID,0,INVALID,163.769,VALID,0,VALID,23.1763,VALID,195,VALID,0.847266,
2011-04-05, 02:03:04,VALID,1005.46,VALID,0,INVALID,163.777,VALID,0,VALID,23.1975,VALID,297,VALID,1.28828,
2011-04-05, 02:04:04,VALID,1005.45,VALID,0.5,INVALID,163.784,VALID,0,VALID,23.1763,VALID,260,VALID,0.889844,
2011-04-05, 02:05:04,VALID,1005.44,VALID,0,INVALID,163.784,VALID,0,VALID,23.1745,VALID,285,VALID,1.03555,
2011-04-05, 02:06:04,VALID,1005.44,VALID,0,INVALID,163.8,VALID,0,VALID,23.1957,VALID,296,VALID,2.59023,
2011-04-05, 02:07:04,VALID,1005.43,VALID,0,INVALID,163.8,VALID,0,VALID,23.2152,VALID,238,VALID,1.50898,
2011-04-05, 02:08:04,VALID,1005.46,VALID,0.5,INVALID,163.777,VALID,0,VALID,23.2347,VALID,300,VALID,1.95469,
2011-04-05, 02:09:04,VALID,1005.45,VALID,0,INVALID,163.762,VALID,0,VALID,23.2541,VALID,289,VALID,1.55039,
2011-04-05, 02:10:04,VALID,1005.41,VALID,0,INVALID,163.777,VALID,0,VALID,23.2736,VALID,295,VALID,1.5793,
2011-04-05, 02:11:04,VALID,1005.39,VALID,0,INVALID,163.8,VALID,0,VALID,23.2948,VALID,292,VALID,1.84258,
2011-04-05, 02:12:04,VALID,1005.42,VALID,0,INVALID,163.777,VALID,0,VALID,23.3125,VALID,326,VALID,1.52969,
2011-04-05, 02:13:04,VALID,1005.43,VALID,0.5,INVALID,163.762,VALID,0,VALID,23.3125,VALID,301,VALID,2.10195,
2011-04-05, 02:14:04,VALID,1005.43,VALID,0,INVALID,163.777,VALID,0,VALID,23.3514,VALID,301,VALID,2.01953,
2011-04-05, 02:15:04,VALID,1005.47,VALID,0,INVALID,163.754,VALID,0,VALID,23.4116,VALID,277,VALID,1.24063,
2011-04-05, 02:16:04,VALID,1005.52,VALID,0,INVALID,163.784,VALID,0,VALID,23.3904,VALID,298,VALID,1.23398,
2011-04-05, 02:17:04,VALID,1005.52,VALID,0.5,INVALID,163.754,VALID,0,VALID,23.4098,VALID,276,VALID,1.06758,
2011-04-05, 02:18:04,VALID,1005.5,VALID,0,INVALID,163.754,VALID,0,VALID,23.4293,VALID,284,VALID,1.63047,
2011-04-05, 02:19:04,VALID,1005.47,VALID,0,INVALID,163.739,VALID,0,VALID,23.4877,VALID,307,VALID,2.12305,
2011-04-05, 02:20:04,VALID,1005.47,VALID,0,INVALID,163.762,VALID,0,VALID,23.4894,VALID,265,VALID,1.8043,
2011-04-05, 02:21:04,VALID,1005.48,VALID,0,INVALID,163.762,VALID,0,VALID,23.5071,VALID,293,VALID,2.23359,
2011-04-05, 02:22:04,VALID,1005.42,VALID,0,INVALID,163.762,VALID,0,VALID,23.5089,VALID,283,VALID,0.837891,
2011-04-05, 02:23:04,VALID,1005.48,VALID,0.5,INVALID,163.762,VALID,0,VALID,23.5284,VALID,291,VALID,1.93359,
2011-04-05, 02:24:04,VALID,1005.44,VALID,0,INVALID,163.746,VALID,0,VALID,23.5071,VALID,295,VALID,3.44961,
2011-04-05, 02:25:04,VALID,1005.5,VALID,0,INVALID,163.746,VALID,0,VALID,23.4098,VALID,294,VALID,3.30898,
2011-04-05, 02:26:04,VALID,1005.48,VALID,0,INVALID,163.762,VALID,0,VALID,23.3904,VALID,278,VALID,2.02539,
2011-04-05, 02:27:04,VALID,1005.56,VALID,0,INVALID,163.762,VALID,0,VALID,23.3921,VALID,292,VALID,2.94062,
2011-04-05, 02:28:04,VALID,1005.52,VALID,0.5,INVALID,163.769,VALID,0,VALID,23.3921,VALID,264,VALID,1.58281,
2011-04-05, 02:29:04,VALID,1005.5,VALID,0,INVALID,163.754,VALID,0,VALID,23.3921,VALID,275,VALID,2.79102,
2011-04-05, 02:30:04,VALID,1005.53,VALID,0,INVALID,163.777,VALID,0,VALID,23.3709,VALID,290,VALID,2.29844,
2011-04-05, 02:31:04,VALID,1005.52,VALID,0,INVALID,163.754,VALID,0,VALID,23.3904,VALID,263,VALID,2.05312,
2011-04-05, 02:32:04,VALID,1005.58,VALID,0,INVALID,163.769,VALID,0,VALID,23.3514,VALID,292,VALID,4.78047,
2011-04-05, 02:33:04,VALID,1005.53,VALID,0.5,INVALID,163.769,VALID,0,VALID,23.3143,VALID,284,VALID,4.38477,
2011-04-05, 02:34:04,VALID,1005.53,VALID,0,INVALID,163.762,VALID,0,VALID,23.3143,VALID,268,VALID,2.55391,
2011-04-05, 02:35:04,VALID,1005.5,VALID,0,INVALID,163.784,VALID,0,VALID,23.3125,VALID,287,VALID,2.46484,
2011-04-05, 02:36:04,VALID,1005.49,VALID,0.5,INVALID,163.769,VALID,0,VALID,23.2931,VALID,274,VALID,1.97109,
2011-04-05, 02:37:04,VALID,1005.5,VALID,0,INVALID,163.769,VALID,0,VALID,23.2931,VALID,298,VALID,2.90156,
2011-04-05, 02:38:04,VALID,1005.46,VALID,0,INVALID,163.777,VALID,0,VALID,23.332,VALID,298,VALID,2.13867,
2011-04-05, 02:39:04,VALID,1005.43,VALID,0,INVALID,163.777,VALID,0,VALID,23.332,VALID,301,VALID,2.69727,
2011-04-05, 02:40:04,VALID,1005.41,VALID,0.5,INVALID,163.762,VALID,0,VALID,23.3337,VALID,272,VALID,1.33125,
2011-04-05, 02:41:04,VALID,1005.4,VALID,0,INVALID,163.769,VALID,0,VALID,23.3337,VALID,252,VALID,1.19492,
2011-04-05, 02:42:04,VALID,1005.4,VALID,0.5,INVALID,163.784,VALID,0,VALID,23.3125,VALID,287,VALID,2.35781,
2011-04-05, 02:43:04,VALID,1005.41,VALID,0,INVALID,163.792,VALID,0,VALID,23.3143,VALID,278,VALID,2.22187,
2011-04-05, 02:44:04,VALID,1005.39,VALID,0,INVALID,163.769,VALID,0,VALID,23.2524,VALID,297,VALID,1.96602,
2011-04-05, 02:45:04,VALID,1005.4,VALID,0,INVALID,163.769,VALID,0.100563,VALID,23.2134,VALID,271,VALID,3.58672,
2011-04-05, 02:46:04,VALID,1005.39,VALID,0,INVALID,163.8,VALID,0.100563,VALID,23.1551,VALID,283,VALID,2.95977,
2011-04-05, 02:47:04,VALID,1005.32,VALID,0.5,INVALID,163.8,VALID,0.100563,VALID,23.1144,VALID,284,VALID,2.83125,
2011-04-05, 02:48:04,VALID,1005.34,VALID,0,INVALID,163.784,VALID,0.100563,VALID,23.1374,VALID,228,VALID,1.51992,
2011-04-05, 02:49:04,VALID,1005.38,VALID,0.5,INVALID,163.807,VALID,0.100563,VALID,23.0755,VALID,265,VALID,1.58516,
2011-04-05, 02:50:04,VALID,1005.35,VALID,0,INVALID,163.792,VALID,0,VALID,23.1374,VALID,266,VALID,2.22695,
2011-04-05, 02:51:04,VALID,1005.36,VALID,0,INVALID,163.784,VALID,0.100563,VALID,23.1356,VALID,283,VALID,1.98281,
2011-04-05, 02:52:04,VALID,1005.36,VALID,0,INVALID,163.8,VALID,0.100563,VALID,23.1356,VALID,300,VALID,1.5793,
2011-04-05, 02:53:04,VALID,1005.31,VALID,0.5,INVALID,163.777,VALID,0.100563,VALID,23.1763,VALID,283,VALID,2.06172,
2011-04-05, 02:54:04,VALID,1005.35,VALID,0,INVALID,163.8,VALID,0.100563,VALID,23.1763,VALID,263,VALID,1.61484,
2011-04-05, 02:55:04,VALID,1005.37,VALID,0,INVALID,163.784,VALID,0,VALID,23.1957,VALID,287,VALID,1.57891,
2011-04-05, 02:56:04,VALID,1005.41,VALID,0.5,INVALID,163.8,VALID,0.100563,VALID,23.2347,VALID,272,VALID,1.08047,
2011-04-05, 02:57:04,VALID,1005.4,VALID,0,INVALID,163.784,VALID,0,VALID,23.2329,VALID,289,VALID,1.55781,
2011-04-05, 02:58:04,VALID,1005.39,VALID,0,INVALID,163.769,VALID,0.100563,VALID,23.2329,VALID,283,VALID,1.01445,
2011-04-05, 02:59:04,VALID,1005.38,VALID,0,INVALID,163.777,VALID,0.100563,VALID,23.2524,VALID,294,VALID,1.82344,
2011-04-05, 03:00:04,VALID,1005.4,VALID,0,INVALID,163.815,VALID,0.100563,VALID,23.2718,VALID,269,VALID,2.22461,
2011-04-05, 03:01:04,VALID,1005.38,VALID,0,INVALID,163.754,VALID,0.100563,VALID,23.2913,VALID,280,VALID,1.04492,
2011-04-05, 03:02:04,VALID,1005.36,VALID,0.5,INVALID,163.762,VALID,0.100563,VALID,23.332,VALID,275,VALID,1.23438,
2011-04-05, 03:03:04,VALID,1005.35,VALID,0,INVALID,163.784,VALID,0.100563,VALID,23.3107,VALID,291,VALID,1.46484,
2011-04-05, 03:04:04,VALID,1005.33,VALID,0,INVALID,163.784,VALID,0.100563,VALID,23.332,VALID,295,VALID,1.4543,
2011-04-05, 03:05:04,VALID,1005.29,VALID,0,INVALID,163.769,VALID,0.100563,VALID,23.3107,VALID,275,VALID,1.31797,
2011-04-05, 03:06:04,VALID,1005.3,VALID,0.5,INVALID,163.754,VALID,0.100563,VALID,23.3107,VALID,299,VALID,1.16641,
2011-04-05, 03:07:04,VALID,1005.23,VALID,0,INVALID,163.769,VALID,0,VALID,23.332,VALID,295,VALID,1.93438,
2011-04-05, 03:08:04,VALID,1005.24,VALID,0,INVALID,163.746,VALID,0.100563,VALID,23.332,VALID,312,VALID,1.46758,
2011-04-05, 03:09:04,VALID,1005.26,VALID,0,INVALID,163.777,VALID,0.100563,VALID,23.3107,VALID,283,VALID,1.70898,
2011-04-05, 03:10:04,VALID,1005.23,VALID,0.5,INVALID,163.784,VALID,0.100563,VALID,23.3107,VALID,3,VALID,1.00195,
2011-04-05, 03:11:04,VALID,1005.22,VALID,0,INVALID,163.754,VALID,0.100563,VALID,23.3107,VALID,296,VALID,1.16641,
2011-04-05, 03:12:04,VALID,1005.19,VALID,0,INVALID,163.784,VALID,0,VALID,23.3514,VALID,305,VALID,1.55469,
2011-04-05, 03:13:04,VALID,1005.2,VALID,0,INVALID,163.8,VALID,0.100563,VALID,23.3514,VALID,287,VALID,2.94141,
2011-04-05, 03:14:04,VALID,1005.15,VALID,0.5,INVALID,163.769,VALID,0,VALID,23.3337,VALID,276,VALID,1.00859,
2011-04-05, 03:15:04,VALID,1005.18,VALID,0,INVALID,163.784,VALID,0,VALID,23.2913,VALID,302,VALID,1.05,
2011-04-05, 03:16:04,VALID,1005.15,VALID,0,INVALID,163.784,VALID,0,VALID,23.332,VALID,295,VALID,1.56992,
2011-04-05, 03:17:04,VALID,1005.12,VALID,0,INVALID,163.784,VALID,0,VALID,23.332,VALID,284,VALID,2.10195,
2011-04-05, 03:18:04,VALID,1005.14,VALID,0,INVALID,163.777,VALID,0,VALID,23.3125,VALID,278,VALID,1.21055,
2011-04-05, 03:19:04,VALID,1005.1,VALID,0.5,INVALID,163.784,VALID,0,VALID,23.332,VALID,293,VALID,2.69375,
2011-04-05, 03:20:04,VALID,1005.11,VALID,0,INVALID,163.777,VALID,0,VALID,23.3125,VALID,300,VALID,1.76055,
2011-04-05, 03:21:04,VALID,1005.09,VALID,0,INVALID,163.769,VALID,0,VALID,23.332,VALID,295,VALID,0.994922,
2011-04-05, 03:22:04,VALID,1005.02,VALID,0,INVALID,163.769,VALID,0,VALID,23.332,VALID,294,VALID,1.92773,
2011-04-05, 03:23:04,VALID,1005.04,VALID,0.5,INVALID,163.784,VALID,0,VALID,23.3532,VALID,300,VALID,1.61328,
2011-04-05, 03:24:04,VALID,1004.99,VALID,0,INVALID,163.784,VALID,0,VALID,23.3514,VALID,294,VALID,1.4668,
2011-04-05, 03:25:04,VALID,1005,VALID,0,INVALID,163.769,VALID,0,VALID,23.3727,VALID,275,VALID,0.574609,
2011-04-05, 03:26:04,VALID,1004.98,VALID,0,INVALID,163.777,VALID,0,VALID,23.3727,VALID,259,VALID,1.21953,
2011-04-05, 03:27:04,VALID,1004.95,VALID,0,INVALID,163.754,VALID,0,VALID,23.3921,VALID,303,VALID,1.41992,
2011-04-05, 03:28:04,VALID,1004.92,VALID,0,INVALID,163.746,VALID,0,VALID,23.4116,VALID,291,VALID,2.72656,
2011-04-05, 03:29:04,VALID,1004.94,VALID,0.5,INVALID,163.769,VALID,0.100563,VALID,23.4293,VALID,292,VALID,1.57891,
2011-04-05, 03:30:04,VALID,1004.91,VALID,0,INVALID,163.754,VALID,0.100563,VALID,23.4275,VALID,270,VALID,1.05781,
2011-04-05, 03:31:04,VALID,1004.92,VALID,0,INVALID,163.762,VALID,0.100563,VALID,23.4257,VALID,276,VALID,1.11875,
2011-04-05, 03:32:04,VALID,1004.91,VALID,0,INVALID,163.746,VALID,0,VALID,23.4877,VALID,284,VALID,1.45586,
2011-04-05, 03:33:04,VALID,1004.89,VALID,0.5,INVALID,163.769,VALID,0,VALID,23.4664,VALID,273,VALID,0.858203,
2011-04-05, 03:34:04,VALID,1004.89,VALID,0,INVALID,163.762,VALID,0.100563,VALID,23.5071,VALID,292,VALID,1.03672,
2011-04-05, 03:35:04,VALID,1004.87,VALID,0,INVALID,163.739,VALID,0.100563,VALID,23.5053,VALID,278,VALID,1.33164,
2011-04-05, 03:36:04,VALID,1004.85,VALID,0,INVALID,163.716,VALID,0.100563,VALID,23.546,VALID,298,VALID,1.39102,
2011-04-05, 03:37:04,VALID,1004.84,VALID,0.5,INVALID,163.762,VALID,0,VALID,23.5443,VALID,268,VALID,1.05938,
2011-04-05, 03:38:04,VALID,1004.79,VALID,0,INVALID,163.746,VALID,0,VALID,23.5637,VALID,296,VALID,1.37891,